GW2328 Weather Reports


Display with metric or nautical units.
time (UTC)temp
F
wind
direction
speed
MPH
gust
MPH
rain 1hr
in
rain 24hr
in
rain mn
in
humidity
%
barometer
mb
20260507202006 65 123 1.0 2.0 0.00 0.00 0.00 38 1018.9
20260507201502 65 160 2.0 3.0 0.00 0.00 0.00 38 1019.2
20260507200958 65 139 0.0 2.0 0.00 0.00 0.00 38 1018.8
20260507200454 64 137 0.0 1.0 0.00 0.00 0.00 37 1019.0
20260507195949 64 100 0.0 1.0 0.00 0.00 0.00 37 1019.2
20260507195448 64 109 0.0 2.0 0.00 0.00 0.00 37 1019.3
20260507194945 64 119 2.0 2.0 0.00 0.00 0.00 37 1019.1
20260507194441 63 96 1.0 1.0 0.00 0.00 0.00 37 1019.1
20260507193937 65 142 2.0 3.0 0.00 0.00 0.00 37 1019.3
20260507193435 65 183 0.0 1.0 0.00 0.00 0.00 38 1019.1
20260507192931 65 40 1.0 2.0 0.00 0.00 0.00 38 1019.1
20260507192427 65 205 1.0 2.0 0.00 0.00 0.00 38 1019.3
20260507191925 65 109 3.0 3.0 0.00 0.00 0.00 39 1019.4
20260507191420 63 151 0.0 2.0 0.00 0.00 0.00 38 1019.4
20260507190917 63 138 0.0 3.0 0.00 0.00 0.00 38 1019.3
20260507190415 63 138 2.0 3.0 0.00 0.00 0.00 38 1019.3
20260507185914 64 167 1.0 5.0 0.00 0.00 0.00 38 1019.5
20260507185411 65 146 1.0 3.0 0.00 0.00 0.00 37 1019.4
20260507184907 64 139 1.0 2.0 0.00 0.00 0.00 38 1019.5
20260507184405 63 146 1.0 2.0 0.00 0.00 0.00 38 1019.4
20260507183902 62 153 0.0 3.0 0.00 0.00 0.00 37 1019.4
20260507183359 62 112 1.0 2.0 0.00 0.00 0.00 38 1019.3
20260507182857 62 144 1.0 2.0 0.00 0.00 0.00 38 1019.6
20260507182352 62 111 1.0 2.0 0.00 0.00 0.00 38 1019.7
20260507181849 62 252 2.0 2.0 0.00 0.00 0.00 38 1019.5
20260507181344 63 328 3.0 5.0 0.00 0.00 0.00 38 1019.6
20260507180842 62 144 0.0 2.0 0.00 0.00 0.00 39 1019.6
20260507180338 62 133 1.0 2.0 0.00 0.00 0.00 39 1019.8
20260507175834 62 138 0.0 1.0 0.00 0.00 0.00 39 1019.9
20260507175331 62 160 0.0 1.0 0.00 0.00 0.00 40 1019.8
20260507174829 61 101 3.0 6.0 0.00 0.00 0.00 39 1019.8
20260507174326 62 357 3.0 5.0 0.00 0.00 0.00 39 1019.9
20260507173823 63 108 1.0 3.0 0.00 0.00 0.00 40 1020.1
20260507173320 63 129 1.0 1.0 0.00 0.00 0.00 40 1020.1
20260507172817 62 122 1.0 2.0 0.00 0.00 0.00 39 1020.0
20260507172314 63 141 0.0 1.0 0.00 0.00 0.00 40 1020.3
20260507171809 61 142 1.0 2.0 0.00 0.00 0.00 40 1020.0
20260507171306 62 140 0.0 3.0 0.00 0.00 0.00 40 1020.2
20260507170803 61 183 2.0 3.0 0.00 0.00 0.00 40 1020.3
20260507170300 61 140 0.0 1.0 0.00 0.00 0.00 40 1020.6
20260507165755 61 134 0.0 1.0 0.00 0.00 0.00 40 1020.4
20260507165252 60 140 0.0 3.0 0.00 0.00 0.00 40 1020.6
20260507164748 60 142 0.0 3.0 0.00 0.00 0.00 40 1020.6
20260507164245 60 144 1.0 3.0 0.00 0.00 0.00 41 1020.7
20260507163742 60 139 0.0 2.0 0.00 0.00 0.00 41 1020.8
20260507163240 61 84 2.0 2.0 0.00 0.00 0.00 41 1020.7
20260507162736 61 127 0.0 0.0 0.00 0.00 0.00 42 1020.9
20260507162232 60 145 1.0 2.0 0.00 0.00 0.00 42 1021.1
20260507161729 59 148 1.0 2.0 0.00 0.00 0.00 42 1020.9
20260507161226 59 158 2.0 2.0 0.00 0.00 0.00 42 1021.2
20260507160721 59 137 0.0 5.0 0.00 0.00 0.00 42 1020.7
20260507160218 58 146 0.0 0.0 0.00 0.00 0.00 42 1020.9
20260507155714 59 151 2.0 3.0 0.00 0.00 0.00 42 1021.0
20260507155210 59 211 1.0 2.0 0.00 0.00 0.00 43 1021.0
20260507154707 59 133 1.0 1.0 0.00 0.00 0.00 44 1020.8
20260507154205 59 139 0.0 1.0 0.00 0.00 0.00 45 1020.9
20260507153701 60 133 1.0 3.0 0.00 0.00 0.00 47 1020.8
20260507153157 58 135 0.0 5.0 0.00 0.00 0.00 47 1021.0
20260507152654 58 130 0.0 1.0 0.00 0.00 0.00 48 1021.2
20260507152150 57 131 0.0 1.0 0.00 0.00 0.00 48 1020.9
20260507151646 57 126 1.0 1.0 0.00 0.00 0.00 49 1020.9
20260507151143 57 133 1.0 1.0 0.00 0.00 0.00 49 1020.8
20260507150640 57 137 0.0 2.0 0.00 0.00 0.00 50 1021.0
20260507150137 56 131 1.0 2.0 0.00 0.00 0.00 51 1020.9
20260507145632 56 138 0.0 2.0 0.00 0.00 0.00 52 1021.0
20260507145130 55 210 3.0 3.0 0.00 0.00 0.00 54 1021.0
20260507144626 55 144 2.0 3.0 0.00 0.00 0.00 55 1021.2
20260507144124 54 150 1.0 2.0 0.00 0.00 0.00 56 1020.9
20260507143620 54 136 1.0 3.0 0.00 0.00 0.00 57 1021.1
20260507143118 54 136 1.0 3.0 0.00 0.00 0.00 59 1021.1
20260507142613 54 204 1.0 3.0 0.00 0.00 0.00 61 1021.1
20260507142110 53 121 1.0 1.0 0.00 0.00 0.00 63 1021.2
20260507141607 53 142 0.0 3.0 0.00 0.00 0.00 65 1021.2
20260507141103 53 125 1.0 2.0 0.00 0.00 0.00 67 1021.1
20260507140600 53 136 1.0 1.0 0.00 0.00 0.00 69 1020.8
20260507140057 52 142 0.0 2.0 0.00 0.00 0.00 72 1021.0
20260507135554 52 151 1.0 2.0 0.00 0.00 0.00 74 1021.1
20260507135052 52 148 1.0 1.0 0.00 0.00 0.00 77 1021.1
20260507134548 52 146 0.0 1.0 0.00 0.00 0.00 79 1021.1
20260507134044 51 143 0.0 1.0 0.00 0.00 0.00 81 1020.9
20260507133540 51 132 0.0 1.0 0.00 0.00 0.00 82 1021.1
20260507133038 51 148 0.0 0.0 0.00 0.00 0.00 84 1021.1
20260507132534 50 148 0.0 0.0 0.00 0.00 0.00 85 1021.1
20260507132031 50 148 1.0 1.0 0.00 0.00 0.00 86 1020.9
20260507131528 50 143 0.0 0.0 0.00 0.00 0.00 88 1020.7
20260507131025 48 136 0.0 2.0 0.00 0.00 0.00 89 1021.0
20260507130522 48 134 0.0 0.0 0.00 0.00 0.00 90 1021.0
20260507130020 47 134 0.0 0.0 0.00 0.00 0.00 91 1020.8
20260507125518 47 134 0.0 0.0 0.00 0.00 0.00 92 1020.9
20260507125015 46 133 0.0 0.0 0.00 0.00 0.00 92 1020.9
20260507124512 46 135 0.0 0.0 0.00 0.00 0.00 93 1021.0
20260507124010 45 135 0.0 0.0 0.00 0.00 0.00 93 1021.0
20260507123508 44 135 0.0 1.0 0.00 0.00 0.00 93 1020.9
20260507123004 44 130 0.0 1.0 0.00 0.00 0.00 94 1021.1
20260507122459 44 142 0.0 0.0 0.00 0.00 0.00 94 1020.9
20260507121955 43 143 0.0 0.0 0.00 0.00 0.00 94 1020.8
20260507121451 43 143 0.0 0.0 0.00 0.00 0.00 93 1021.0
20260507120947 42 143 0.0 0.0 0.00 0.00 0.00 93 1020.9
20260507120443 42 143 0.0 0.0 0.00 0.00 0.00 93 1020.9
20260507115941 42 143 0.0 0.0 0.00 0.00 0.00 93 1021.1
20260507115436 41 143 0.0 0.0 0.00 0.00 0.00 93 1020.9
20260507114932 41 143 0.0 0.0 0.00 0.00 0.00 93 1021.1
20260507114429 41 143 0.0 0.0 0.00 0.00 0.00 93 1021.1
20260507113926 40 143 0.0 0.0 0.00 0.00 0.00 93 1021.1
20260507113423 40 143 0.0 0.0 0.00 0.00 0.00 93 1021.1
20260507112921 40 143 0.0 0.0 0.00 0.00 0.00 93 1020.8
20260507112418 40 143 0.0 0.0 0.00 0.00 0.00 93 1021.0
20260507111915 40 143 0.0 0.0 0.00 0.00 0.00 93 1020.9
20260507111412 40 143 0.0 0.0 0.00 0.00 0.00 93 1020.8
20260507110908 40 143 0.0 0.0 0.00 0.00 0.00 93 1020.8
20260507110404 40 143 0.0 0.0 0.00 0.00 0.00 93 1020.5
20260507105902 40 143 0.0 0.0 0.00 0.00 0.00 93 1020.8
20260507105358 40 143 0.0 0.0 0.00 0.00 0.00 93 1020.5
20260507104855 40 143 0.0 0.0 0.00 0.00 0.00 93 1020.9
20260507104351 41 143 0.0 0.0 0.00 0.00 0.00 93 1020.8
20260507103847 41 143 0.0 0.0 0.00 0.00 0.00 93 1020.7
20260507103344 41 143 0.0 0.0 0.00 0.00 0.00 93 1020.5
20260507102841 41 143 0.0 0.0 0.00 0.00 0.00 93 1020.5
20260507102337 41 143 0.0 0.0 0.00 0.00 0.00 93 1020.5
20260507101833 41 143 0.0 0.0 0.00 0.00 0.00 93 1020.1
20260507101328 41 143 0.0 0.0 0.00 0.00 0.00 93 1020.2
20260507100825 42 143 0.0 0.0 0.00 0.00 0.00 93 1020.5
20260507100323 42 143 0.0 0.0 0.00 0.00 0.00 93 1020.4
20260507095821 42 143 0.0 0.0 0.00 0.00 0.00 93 1020.4
20260507095317 42 143 0.0 0.0 0.00 0.00 0.00 93 1020.4
20260507094815 42 143 0.0 0.0 0.00 0.00 0.00 93 1020.5
20260507094311 42 143 0.0 0.0 0.00 0.00 0.00 93 1020.2
20260507093808 42 143 0.0 0.0 0.00 0.00 0.00 94 1020.3
20260507093307 42 143 0.0 0.0 0.00 0.00 0.00 93 1020.1
20260507092804 42 143 0.0 0.0 0.00 0.00 0.00 94 1020.2
20260507092300 42 143 0.0 0.0 0.00 0.00 0.00 93 1020.2
20260507091757 42 143 0.0 0.0 0.00 0.00 0.00 93 1020.2
20260507091253 42 136 0.0 0.0 0.00 0.00 0.00 93 1020.3
20260507090748 42 136 0.0 0.0 0.00 0.00 0.00 93 1020.3
20260507090245 42 136 0.0 0.0 0.00 0.00 0.00 93 1020.3
20260507085742 42 136 0.0 0.0 0.00 0.00 0.00 93 1020.2
20260507085238 42 136 0.0 0.0 0.00 0.00 0.00 93 1020.1
20260507084736 42 136 0.0 0.0 0.00 0.00 0.00 93 1020.1
20260507084232 42 136 0.0 0.0 0.00 0.00 0.00 93 1020.1
20260507083730 42 136 0.0 0.0 0.00 0.00 0.00 93 1019.9
20260507083226 42 136 0.0 0.0 0.00 0.00 0.00 93 1019.7
20260507082722 42 136 0.0 0.0 0.00 0.00 0.00 93 1019.8
20260507082218 42 136 0.0 0.0 0.00 0.00 0.00 93 1019.9
20260507081715 42 136 0.0 0.0 0.00 0.00 0.00 93 1019.8
20260507081211 42 136 0.0 0.0 0.00 0.00 0.00 93 1020.0
20260507080708 43 136 0.0 0.0 0.00 0.00 0.00 92 1019.6
20260507080204 43 136 0.0 0.0 0.00 0.00 0.00 92 1019.7
20260507075659 43 135 0.0 0.0 0.00 0.00 0.00 92 1019.6
20260507075156 43 136 0.0 0.0 0.00 0.00 0.00 92 1019.6
20260507074652 43 136 0.0 0.0 0.00 0.00 0.00 92 1019.6
20260507074151 43 135 0.0 0.0 0.00 0.00 0.00 92 1019.6
20260507073647 43 135 0.0 0.0 0.00 0.00 0.00 92 1019.7
20260507073143 43 136 0.0 0.0 0.00 0.00 0.00 92 1019.5
20260507072641 44 136 0.0 0.0 0.00 0.00 0.00 92 1019.5
20260507072138 44 135 0.0 0.0 0.00 0.00 0.00 92 1019.4
20260507071636 44 136 0.0 0.0 0.00 0.00 0.00 92 1019.5
20260507071132 44 135 0.0 0.0 0.00 0.00 0.00 92 1019.5
20260507070629 44 136 0.0 0.0 0.00 0.00 0.00 92 1019.4
20260507070126 45 136 0.0 0.0 0.00 0.00 0.00 92 1019.5
20260507065622 45 136 0.0 0.0 0.00 0.00 0.00 91 1019.5
20260507065119 45 136 0.0 0.0 0.00 0.00 0.00 91 1019.6
20260507064617 45 136 0.0 0.0 0.00 0.00 0.00 91 1019.6
20260507064116 45 136 0.0 0.0 0.00 0.00 0.00 91 1019.8
20260507063613 45 136 0.0 0.0 0.00 0.00 0.00 91 1019.9
20260507063110 45 136 0.0 0.0 0.00 0.00 0.00 91 1019.6
20260507062606 45 136 0.0 0.0 0.00 0.00 0.00 91 1019.9
20260507062104 45 136 0.0 0.0 0.00 0.00 0.00 91 1019.8
20260507061601 45 136 0.0 0.0 0.00 0.00 0.00 91 1019.8
20260507061059 45 136 0.0 0.0 0.00 0.00 0.00 91 1019.9
20260507060557 45 136 0.0 0.0 0.00 0.00 0.00 90 1019.7
20260507060053 45 136 0.0 0.0 0.00 0.00 0.00 90 1019.5
20260507055548 45 136 0.0 0.0 0.00 0.00 0.00 90 1019.5
20260507055045 45 136 0.0 0.0 0.00 0.00 0.00 90 1019.7
20260507054541 45 136 0.0 0.0 0.00 0.00 0.00 90 1019.6
20260507054038 45 136 0.0 0.0 0.00 0.00 0.00 90 1020.0
20260507053536 45 136 0.0 0.0 0.00 0.00 0.00 90 1020.1
20260507053034 45 136 0.0 0.0 0.00 0.00 0.00 89 1020.1
20260507052532 45 136 0.0 0.0 0.00 0.00 0.00 89 1019.8
20260507052028 45 136 0.0 0.0 0.00 0.00 0.00 89 1019.8
20260507051526 46 136 0.0 0.0 0.00 0.00 0.00 89 1019.9
20260507051023 46 136 0.0 0.0 0.00 0.00 0.00 89 1019.9
20260507050519 46 136 0.0 0.0 0.00 0.00 0.00 88 1020.0
20260507050016 46 136 0.0 0.0 0.00 0.00 0.00 88 1019.9
20260507045512 46 136 0.0 0.0 0.00 0.00 0.00 88 1019.8
20260507045010 46 136 0.0 0.0 0.00 0.00 0.00 88 1019.5
20260507044506 46 135 0.0 0.0 0.00 0.00 0.00 88 1019.6
20260507044003 46 136 0.0 0.0 0.00 0.00 0.00 87 1019.5
20260507043459 46 135 0.0 0.0 0.00 0.00 0.00 87 1019.5
20260507042955 46 136 0.0 0.0 0.00 0.00 0.00 87 1019.9
20260507042452 46 136 0.0 0.0 0.00 0.00 0.00 87 1019.9
20260507041948 47 135 0.0 0.0 0.00 0.00 0.00 87 1019.9
20260507041445 47 135 0.0 0.0 0.00 0.00 0.00 87 1019.7
20260507040942 47 135 0.0 0.0 0.00 0.00 0.00 86 1020.0
20260507040437 47 135 0.0 0.0 0.00 0.00 0.00 86 1019.8
20260507035934 47 135 0.0 0.0 0.00 0.14 0.14 86 1019.7
20260507035431 47 135 0.0 0.0 0.00 0.14 0.14 86 1019.8
20260507034927 47 135 0.0 0.0 0.00 0.14 0.14 86 1020.1
20260507034424 48 135 0.0 0.0 0.00 0.14 0.14 85 1019.9
20260507033922 48 135 0.0 0.0 0.00 0.14 0.14 85 1019.8
20260507033420 48 135 0.0 0.0 0.00 0.14 0.14 85 1020.0
20260507032916 48 135 0.0 0.0 0.00 0.14 0.14 85 1020.1
20260507032414 48 135 0.0 0.0 0.00 0.14 0.14 84 1020.1
20260507031909 49 135 0.0 0.0 0.00 0.14 0.14 84 1019.7
20260507031406 49 135 0.0 0.0 0.00 0.14 0.14 84 1019.8
20260507030903 49 148 0.0 0.0 0.00 0.14 0.14 83 1019.8
20260507030400 49 148 0.0 0.0 0.00 0.14 0.14 83 1019.7
20260507025857 50 148 0.0 0.0 0.00 0.14 0.14 83 1019.8
20260507025355 50 148 0.0 0.0 0.00 0.14 0.14 82 1019.5
20260507024852 50 148 0.0 0.0 0.00 0.14 0.14 82 1019.9
20260507024349 50 148 0.0 0.0 0.00 0.14 0.14 81 1019.5
20260507023845 50 148 0.0 0.0 0.00 0.14 0.14 81 1019.5
20260507023342 51 148 0.0 0.0 0.00 0.14 0.14 80 1019.6
20260507022839 51 148 0.0 0.0 0.00 0.14 0.14 80 1019.4
20260507022336 51 148 0.0 0.0 0.00 0.14 0.14 79 1019.5
20260507021832 51 147 0.0 0.0 0.00 0.14 0.14 78 1019.4
20260507021327 52 148 0.0 0.0 0.00 0.14 0.14 78 1019.3
20260507020825 52 148 0.0 0.0 0.00 0.14 0.14 77 1019.2
20260507020322 52 147 0.0 0.0 0.00 0.14 0.14 77 1019.2
20260507015819 53 147 0.0 0.0 0.00 0.14 0.14 76 1019.0
20260507015317 53 148 0.0 0.0 0.00 0.14 0.14 75 1019.1
20260507014814 53 148 0.0 0.0 0.00 0.14 0.14 75 1018.8
20260507014310 54 147 0.0 0.0 0.00 0.14 0.14 74 1019.0
20260507013806 54 147 0.0 0.0 0.00 0.14 0.14 74 1018.7
20260507013304 54 147 0.0 0.0 0.00 0.14 0.14 73 1018.8
20260507012801 55 147 0.0 0.0 0.00 0.14 0.14 73 1018.9
20260507012256 55 148 0.0 0.0 0.00 0.14 0.14 72 1018.7
20260507011754 55 147 0.0 0.0 0.00 0.14 0.14 71 1018.7
20260507011251 55 147 0.0 0.0 0.00 0.14 0.14 70 1018.7
20260507010750 55 147 0.0 0.0 0.00 0.14 0.14 70 1018.8
20260507010246 55 147 0.0 0.0 0.00 0.14 0.14 69 1018.7
20260507005744 56 147 0.0 0.0 0.00 0.14 0.14 68 1018.6
20260507005240 56 147 0.0 0.0 0.00 0.14 0.14 68 1018.8
20260507004737 56 147 0.0 0.0 0.00 0.14 0.14 67 1018.5
20260507004235 56 148 0.0 0.0 0.00 0.14 0.14 66 1018.7
20260507003730 57 147 0.0 0.0 0.00 0.14 0.14 65 1018.4
20260507003226 57 147 0.0 0.0 0.00 0.14 0.14 63 1018.5
20260507002722 57 147 0.0 0.0 0.00 0.14 0.14 63 1018.6
20260507002218 57 147 0.0 0.0 0.00 0.14 0.14 62 1018.5
20260507001715 57 147 0.0 0.0 0.00 0.14 0.14 61 1018.4
20260507001213 57 147 0.0 0.0 0.00 0.14 0.14 61 1018.3
20260507000709 58 147 0.0 0.0 0.00 0.14 0.14 60 1018.4
20260507000205 58 147 0.0 0.0 0.00 0.14 0.14 60 1018.4
20260506235702 59 147 0.0 0.0 0.00 0.14 0.14 59 1018.4
20260506235157 59 148 0.0 0.0 0.00 0.14 0.14 58 1018.2
20260506234654 59 148 0.0 0.0 0.00 0.14 0.14 57 1018.2
20260506234151 59 148 0.0 0.0 0.00 0.14 0.14 56 1018.2
20260506233648 59 141 0.0 0.0 0.00 0.14 0.14 56 1018.2
20260506233145 59 133 0.0 1.0 0.00 0.14 0.14 57 1018.3
20260506232641 59 146 0.0 1.0 0.00 0.14 0.14 57 1018.3
20260506232137 59 149 0.0 1.0 0.00 0.14 0.14 57 1018.3
20260506231634 59 152 0.0 1.0 0.00 0.14 0.14 57 1018.4
20260506231133 59 137 0.0 1.0 0.00 0.14 0.14 57 1018.6
20260506230629 59 143 0.0 1.0 0.00 0.14 0.14 57 1018.5
20260506230126 59 157 1.0 2.0 0.00 0.14 0.14 58 1018.3
20260506225623 59 148 0.0 2.0 0.00 0.14 0.14 59 1018.3
20260506225119 59 136 0.0 1.0 0.00 0.14 0.14 60 1018.3
20260506224616 59 134 0.0 0.0 0.00 0.14 0.14 60 1018.2
20260506224112 60 141 0.0 0.0 0.00 0.14 0.14 60 1017.9
20260506223609 59 140 0.0 0.0 0.00 0.14 0.14 60 1018.1
20260506223105 59 143 0.0 2.0 0.00 0.14 0.14 59 1017.8
20260506222602 60 138 0.0 1.0 0.00 0.14 0.14 59 1017.7
20260506222058 60 142 2.0 2.0 0.00 0.14 0.14 58 1017.9
20260506221556 60 140 0.0 0.0 0.00 0.14 0.14 58 1017.7
20260506221054 60 132 0.0 0.0 0.00 0.14 0.14 58 1018.1
20260506220550 60 140 0.0 0.0 0.00 0.14 0.14 58 1018.1
20260506220045 60 145 0.0 1.0 0.00 0.14 0.14 56 1017.7
20260506215542 60 138 0.0 1.0 0.00 0.14 0.14 55 1017.9
20260506215038 60 138 0.0 1.0 0.00 0.14 0.14 55 1017.7
20260506214535 60 145 1.0 1.0 0.00 0.14 0.14 54 1017.9
20260506214032 61 159 2.0 2.0 0.00 0.14 0.14 53 1017.8
20260506213530 61 135 0.0 0.0 0.00 0.14 0.14 53 1017.7
20260506213027 61 116 0.0 1.0 0.00 0.14 0.14 54 1018.1
20260506212524 61 176 1.0 1.0 0.00 0.14 0.14 54 1018.4
20260506212019 61 148 0.0 1.0 0.00 0.14 0.14 54 1018.2
20260506211515 61 119 2.0 2.0 0.00 0.14 0.14 53 1018.3
20260506211013 61 137 0.0 1.0 0.00 0.14 0.14 52 1018.2
20260506210509 61 146 0.0 0.0 0.00 0.14 0.14 53 1018.1
20260506210006 61 134 1.0 1.0 0.00 0.14 0.14 53 1018.2
20260506205502 61 141 0.0 1.0 0.00 0.14 0.14 53 1018.0
20260506204958 61 138 0.0 1.0 0.00 0.14 0.14 53 1018.3
20260506204456 62 143 0.0 2.0 0.00 0.14 0.14 53 1018.4
20260506203953 62 143 1.0 1.0 0.00 0.14 0.14 52 1018.2
20260506203450 62 138 0.0 1.0 0.00 0.14 0.14 52 1018.3
20260506202947 63 152 1.0 1.0 0.00 0.14 0.14 52 1018.1
20260506202444 63 164 0.0 1.0 0.00 0.14 0.14 52 1018.1